Time,TemperatureF,DewpointF,PressureIn,WindDirection,WindDirectionDegrees,WindSpeedMPH,WindSpeedGustMPH,Humidity,HourlyPrecipIn,Conditions,Clouds,dailyrainin,SoftwareType,DateUTC
2013-04-21 00:07:00,40.4,35.0,30.15,NNW,329,0.0,0.0,81,0.00,,,0.00,weatherlink.com 1.10,2013-04-21 07:07:00,
2013-04-21 00:22:00,38.8,33.0,30.15,NNW,329,0.0,0.0,79,0.00,,,0.00,weatherlink.com 1.10,2013-04-21 07:22:00,
2013-04-21 00:39:00,37.2,33.0,30.16,NNW,329,0.0,0.0,83,0.00,,,0.00,weatherlink.com 1.10,2013-04-21 07:39:00,
2013-04-21 00:54:00,36.9,32.0,30.16,NNW,329,0.0,0.0,81,0.00,,,0.00,weatherlink.com 1.10,2013-04-21 07:54:00,
2013-04-21 01:09:00,36.2,32.0,30.16,NNW,329,0.0,0.0,85,0.00,,,0.00,weatherlink.com 1.10,2013-04-21 08:09:00,
2013-04-21 01:24:00,37.1,33.0,30.16,NNW,329,0.0,0.0,86,0.00,,,0.00,weatherlink.com 1.10,2013-04-21 08:24:00,
2013-04-21 01:39:00,38.0,33.0,30.16,NNW,329,0.0,0.0,83,0.00,,,0.00,weatherlink.com 1.10,2013-04-21 08:39:00,
2013-04-21 01:54:00,37.0,32.0,30.16,NNW,329,0.0,0.0,83,0.00,,,0.00,weatherlink.com 1.10,2013-04-21 08:54:00,
2013-04-21 02:09:00,37.2,33.0,30.14,SW,232,3.0,3.0,86,0.00,,,0.00,weatherlink.com 1.10,2013-04-21 09:09:00,
2013-04-21 02:24:00,36.2,32.0,30.14,SSW,198,0.0,0.0,84,0.00,,,0.00,weatherlink.com 1.10,2013-04-21 09:24:00,
2013-04-21 02:39:00,35.2,31.0,30.15,South,188,0.0,0.0,85,0.00,,,0.00,weatherlink.com 1.10,2013-04-21 09:39:00,
2013-04-21 02:54:00,35.4,31.0,30.15,South,188,0.0,0.0,85,0.00,,,0.00,weatherlink.com 1.10,2013-04-21 09:54:00,
2013-04-21 03:09:00,35.1,31.0,30.15,South,188,0.0,0.0,84,0.00,,,0.00,weatherlink.com 1.10,2013-04-21 10:09:00,
2013-04-21 03:25:00,34.6,31.0,30.15,South,188,0.0,0.0,85,0.00,,,0.00,weatherlink.com 1.10,2013-04-21 10:25:00,
2013-04-21 03:40:00,34.4,30.0,30.16,South,188,0.0,0.0,84,0.00,,,0.00,weatherlink.com 1.10,2013-04-21 10:40:00,
2013-04-21 03:55:00,34.4,31.0,30.16,South,188,0.0,0.0,86,0.00,,,0.00,weatherlink.com 1.10,2013-04-21 10:55:00,
2013-04-21 04:10:00,32.6,28.0,30.16,South,188,0.0,0.0,84,0.00,,,0.00,weatherlink.com 1.10,2013-04-21 11:10:00,
2013-04-21 04:25:00,32.4,29.0,30.15,South,188,0.0,0.0,88,0.00,,,0.00,weatherlink.com 1.10,2013-04-21 11:25:00,
2013-04-21 04:40:00,33.4,30.0,30.15,South,187,0.0,0.0,88,0.00,,,0.00,weatherlink.com 1.10,2013-04-21 11:40:00,
2013-04-21 04:55:00,34.1,31.0,30.15,South,181,0.0,4.0,87,0.00,,,0.00,weatherlink.com 1.10,2013-04-21 11:55:00,
2013-04-21 05:11:00,34.4,31.0,30.14,South,181,0.0,0.0,88,0.00,,,0.00,weatherlink.com 1.10,2013-04-21 12:11:00,
2013-04-21 05:41:00,35.2,31.0,30.15,South,181,0.0,0.0,85,0.00,,,0.00,weatherlink.com 1.10,2013-04-21 12:41:00,
2013-04-21 05:56:00,35.6,32.0,30.15,South,181,0.0,0.0,86,0.00,,,0.00,weatherlink.com 1.10,2013-04-21 12:56:00,
2013-04-21 06:11:00,35.2,31.0,30.15,South,180,0.0,3.0,85,0.00,,,0.00,weatherlink.com 1.10,2013-04-21 13:11:00,
2013-04-21 06:26:00,35.2,31.0,30.15,South,180,0.0,0.0,86,0.00,,,0.00,weatherlink.com 1.10,2013-04-21 13:26:00,
2013-04-21 06:41:00,35.7,32.0,30.16,South,181,0.0,0.0,86,0.00,,,0.00,weatherlink.com 1.10,2013-04-21 13:41:00,
2013-04-21 06:57:00,35.5,32.0,30.16,South,180,0.0,0.0,87,0.00,,,0.00,weatherlink.com 1.10,2013-04-21 13:57:00,
2013-04-21 07:12:00,36.5,33.0,30.16,South,181,0.0,0.0,87,0.00,,,0.00,weatherlink.com 1.10,2013-04-21 14:12:00,
2013-04-21 07:27:00,37.3,34.0,30.16,South,180,0.0,0.0,86,0.00,,,0.00,weatherlink.com 1.10,2013-04-21 14:27:00,
2013-04-21 07:42:00,38.1,34.0,30.16,South,180,0.0,0.0,86,0.00,,,0.00,weatherlink.com 1.10,2013-04-21 14:42:00,
2013-04-21 07:57:00,38.5,34.0,30.16,South,180,0.0,0.0,85,0.00,,,0.00,weatherlink.com 1.10,2013-04-21 14:57:00,
2013-04-21 08:12:00,39.8,35.0,30.16,South,180,0.0,1.0,84,0.00,,,0.00,weatherlink.com 1.10,2013-04-21 15:12:00,
2013-04-21 08:27:00,41.2,36.0,30.17,South,181,0.0,0.0,83,0.00,,,0.00,weatherlink.com 1.10,2013-04-21 15:27:00,
2013-04-21 08:44:00,42.9,37.0,30.16,South,181,0.0,2.0,79,0.00,,,0.00,weatherlink.com 1.10,2013-04-21 15:44:00,
2013-04-21 08:59:00,44.0,37.0,30.16,South,181,0.0,0.0,75,0.00,,,0.00,weatherlink.com 1.10,2013-04-21 15:59:00,
2013-04-21 09:14:00,45.1,37.0,30.15,WNW,290,0.0,3.0,74,0.00,,,0.00,weatherlink.com 1.10,2013-04-21 16:14:00,
2013-04-21 09:29:00,45.9,37.0,30.15,WNW,294,0.0,0.0,72,0.00,,,0.00,weatherlink.com 1.10,2013-04-21 16:29:00,
2013-04-21 09:45:00,48.2,38.0,30.15,WNW,294,0.0,0.0,68,0.00,,,0.00,weatherlink.com 1.10,2013-04-21 16:45:00,
2013-04-21 09:59:00,51.2,39.0,30.14,WNW,302,0.0,1.0,64,0.00,,,0.00,weatherlink.com 1.10,2013-04-21 16:59:00,
2013-04-21 10:14:00,53.4,38.0,30.14,North,360,0.0,0.0,56,0.00,,,0.00,weatherlink.com 1.10,2013-04-21 17:14:00,
2013-04-21 10:29:00,52.2,37.0,30.14,North,360,0.0,0.0,57,0.00,,,0.00,weatherlink.com 1.10,2013-04-21 17:29:00,
2013-04-21 10:44:00,53.1,37.0,30.13,ENE,71,0.0,4.0,54,0.00,,,0.00,weatherlink.com 1.10,2013-04-21 17:44:00,
2013-04-21 10:59:00,53.7,38.0,30.13,North,5,0.0,3.0,55,0.00,,,0.00,weatherlink.com 1.10,2013-04-21 17:59:00,
2013-04-21 11:14:00,56.3,36.0,30.13,SSW,207,0.0,3.0,47,0.00,,,0.00,weatherlink.com 1.10,2013-04-21 18:14:00,
2013-04-21 11:29:00,54.7,34.0,30.13,WSW,253,4.0,7.0,46,0.00,,,0.00,weatherlink.com 1.10,2013-04-21 18:29:00,
2013-04-21 11:45:00,55.7,36.0,30.12,WNW,297,0.0,10.0,48,0.00,,,0.00,weatherlink.com 1.10,2013-04-21 18:45:00,
2013-04-21 12:00:00,55.5,37.0,30.12,NW,324,2.0,9.0,50,0.00,,,0.00,weatherlink.com 1.10,2013-04-21 19:00:00,
2013-04-21 12:15:00,55.1,37.0,30.12,NW,319,2.0,10.0,51,0.00,,,0.00,weatherlink.com 1.10,2013-04-21 19:15:00,
2013-04-21 12:30:00,55.1,37.0,30.12,NNW,340,0.0,6.0,51,0.00,,,0.00,weatherlink.com 1.10,2013-04-21 19:30:00,
2013-04-21 12:45:00,57.3,39.0,30.11,NNW,340,0.0,3.0,51,0.00,,,0.00,weatherlink.com 1.10,2013-04-21 19:45:00,
2013-04-21 13:00:00,58.6,39.0,30.11,NNW,343,0.0,4.0,49,0.00,,,0.00,weatherlink.com 1.10,2013-04-21 20:00:00,
2013-04-21 13:15:00,56.9,38.0,30.10,SW,221,0.0,4.0,49,0.00,,,0.00,weatherlink.com 1.10,2013-04-21 20:15:00,
2013-04-21 13:31:00,57.5,40.0,30.10,NW,306,5.0,10.0,53,0.00,,,0.00,weatherlink.com 1.10,2013-04-21 20:31:00,
2013-04-21 13:46:00,59.0,41.0,30.10,NNW,327,7.0,14.0,51,0.00,,,0.00,weatherlink.com 1.10,2013-04-21 20:46:00,
2013-04-21 14:01:00,60.2,42.0,30.09,NW,325,11.0,19.0,52,0.00,,,0.00,weatherlink.com 1.10,2013-04-21 21:01:00,
2013-04-21 14:16:00,59.9,43.0,30.09,NW,324,15.0,19.0,53,0.00,,,0.00,weatherlink.com 1.10,2013-04-21 21:16:00,
2013-04-21 14:31:00,59.5,41.0,30.09,NW,326,13.0,17.0,51,0.00,,,0.00,weatherlink.com 1.10,2013-04-21 21:31:00,
2013-04-21 14:47:00,59.0,41.0,30.09,NW,323,12.0,20.0,51,0.00,,,0.00,weatherlink.com 1.10,2013-04-21 21:47:00,
2013-04-21 15:02:00,59.8,41.0,30.08,NNW,327,17.0,21.0,51,0.00,,,0.00,weatherlink.com 1.10,2013-04-21 22:02:00,
2013-04-21 15:17:00,59.6,42.0,30.08,NW,312,11.0,17.0,52,0.00,,,0.00,weatherlink.com 1.10,2013-04-21 22:17:00,
2013-04-21 15:32:00,58.6,41.0,30.08,NW,304,12.0,19.0,53,0.00,,,0.00,weatherlink.com 1.10,2013-04-21 22:32:00,
2013-04-21 15:47:00,59.0,42.0,30.08,NW,313,12.0,20.0,53,0.00,,,0.00,weatherlink.com 1.10,2013-04-21 22:47:00,
2013-04-21 16:02:00,58.0,42.0,30.08,NW,318,12.0,21.0,55,0.00,,,0.00,weatherlink.com 1.10,2013-04-21 23:02:00,
2013-04-21 16:17:00,57.6,41.0,30.08,NNW,328,9.0,22.0,55,0.00,,,0.00,weatherlink.com 1.10,2013-04-21 23:17:00,
2013-04-21 16:32:00,57.2,41.0,30.08,NW,322,11.0,20.0,55,0.00,,,0.00,weatherlink.com 1.10,2013-04-21 23:32:00,
2013-04-21 16:47:00,57.5,42.0,30.08,NW,319,14.0,20.0,56,0.00,,,0.00,weatherlink.com 1.10,2013-04-21 23:47:00,
2013-04-21 17:02:00,57.0,41.0,30.08,NNW,340,8.0,23.0,55,0.00,,,0.00,weatherlink.com 1.10,2013-04-22 00:02:00,
2013-04-21 17:19:00,56.7,41.0,30.08,NW,313,11.0,18.0,57,0.00,,,0.00,weatherlink.com 1.10,2013-04-22 00:19:00,
2013-04-21 17:34:00,56.9,42.0,30.08,NNW,334,16.0,21.0,57,0.00,,,0.00,weatherlink.com 1.10,2013-04-22 00:34:00,
2013-04-21 17:49:00,56.8,41.0,30.08,NW,315,9.0,20.0,57,0.00,,,0.00,weatherlink.com 1.10,2013-04-22 00:49:00,
2013-04-21 18:04:00,56.7,41.0,30.09,NW,324,8.0,19.0,57,0.00,,,0.00,weatherlink.com 1.10,2013-04-22 01:04:00,
2013-04-21 18:19:00,56.7,41.0,30.09,NW,323,9.0,16.0,57,0.00,,,0.00,weatherlink.com 1.10,2013-04-22 01:19:00,
2013-04-21 18:34:00,54.9,41.0,30.09,NW,319,9.0,14.0,59,0.00,,,0.00,weatherlink.com 1.10,2013-04-22 01:34:00,
2013-04-21 18:49:00,54.4,41.0,30.09,North,355,8.0,15.0,60,0.00,,,0.00,weatherlink.com 1.10,2013-04-22 01:49:00,
2013-04-21 19:04:00,54.4,41.0,30.09,NW,317,11.0,20.0,61,0.00,,,0.00,weatherlink.com 1.10,2013-04-22 02:04:00,
2013-04-21 19:19:00,53.0,40.0,30.10,NW,323,11.0,15.0,62,0.00,,,0.00,weatherlink.com 1.10,2013-04-22 02:19:00,
2013-04-21 19:34:00,51.5,41.0,30.10,NNW,329,9.0,15.0,67,0.00,,,0.00,weatherlink.com 1.10,2013-04-22 02:34:00,
2013-04-21 19:49:00,49.3,40.0,30.10,NNW,327,13.0,14.0,71,0.00,,,0.00,weatherlink.com 1.10,2013-04-22 02:49:00,
2013-04-21 20:04:00,48.1,40.0,30.11,NNW,338,1.0,18.0,73,0.00,,,0.00,weatherlink.com 1.10,2013-04-22 03:04:00,
2013-04-21 20:19:00,47.5,39.0,30.11,NNW,332,3.0,13.0,73,0.00,,,0.00,weatherlink.com 1.10,2013-04-22 03:19:00,
2013-04-21 20:34:00,47.4,39.0,30.13,NW,322,12.0,13.0,72,0.00,,,0.00,weatherlink.com 1.10,2013-04-22 03:34:00,
2013-04-21 20:50:00,47.2,38.0,30.13,North,360,6.0,13.0,71,0.00,,,0.00,weatherlink.com 1.10,2013-04-22 03:50:00,
2013-04-21 21:05:00,46.7,38.0,30.14,North,360,2.0,13.0,71,0.00,,,0.00,weatherlink.com 1.10,2013-04-22 04:05:00,
2013-04-21 21:20:00,46.9,38.0,30.15,NNW,336,6.0,14.0,70,0.00,,,0.00,weatherlink.com 1.10,2013-04-22 04:20:00,
2013-04-21 21:35:00,46.9,37.0,30.15,NW,321,17.0,24.0,68,0.00,,,0.00,weatherlink.com 1.10,2013-04-22 04:35:00,
2013-04-21 21:50:00,46.4,36.0,30.15,NW,325,16.0,20.0,67,0.00,,,0.00,weatherlink.com 1.10,2013-04-22 04:50:00,
2013-04-21 22:05:00,46.6,36.0,30.16,NNW,346,9.0,23.0,67,0.00,,,0.00,weatherlink.com 1.10,2013-04-22 05:05:00,
2013-04-21 22:20:00,45.6,36.0,30.16,NNW,327,13.0,18.0,68,0.00,,,0.00,weatherlink.com 1.10,2013-04-22 05:20:00,
2013-04-21 22:35:00,46.0,35.0,30.16,NW,323,11.0,23.0,65,0.00,,,0.00,weatherlink.com 1.10,2013-04-22 05:35:00,
2013-04-21 22:50:00,45.7,34.0,30.16,NW,322,14.0,23.0,65,0.00,,,0.00,weatherlink.com 1.10,2013-04-22 05:50:00,
2013-04-21 23:06:00,45.0,34.0,30.16,NW,321,7.0,17.0,66,0.00,,,0.00,weatherlink.com 1.10,2013-04-22 06:06:00,
2013-04-21 23:21:00,44.6,35.0,30.17,NNW,329,3.0,14.0,69,0.00,,,0.00,weatherlink.com 1.10,2013-04-22 06:21:00,
2013-04-21 23:36:00,44.1,36.0,30.18,NNW,344,1.0,16.0,73,0.00,,,0.00,weatherlink.com 1.10,2013-04-22 06:36:00,
2013-04-21 23:51:00,42.7,35.0,30.19,NNW,341,0.0,8.0,75,0.00,,,0.00,weatherlink.com 1.10,2013-04-22 06:51:00,